Weather in Novovasiljevka

Ukraine / Kherson District     46°38′52″N   34°32′38″E
temp.,
°C
wind,
m/s
gust,
m/s
humid.,
%
clouds,
%
prec.,
mm/h
press.,
hPa
HPBL,
m
18 april, sun
sun1800:00+7s226899 0.0 102029
03:00+6ene227088 0.0 101916
06:00+6e226864 0.0 101916
09:00+10e34505 0.0 1018438
12:00+14ese3340100 0.0 10181300
15:00+15ese32405 0.0 10161745
18:00+14se535616 0.0 1016765
21:00+9sse3586100 0.0 1018112
19 april, mon
mon1900:00+9s2382100 0.0 1018103
03:00+9ene1179100 0.0 101725
06:00+9ne227995 0.0 101641
09:00+11e2268100 0.0 1016377
12:00+15e335289 0.0 10151348
15:00+17ene224689 0.0 10141691
18:00+15e2460100 0.0 1014166
21:00+11ese3474100 0.0 101394
20 april, tue
tue2000:00+9ene5107995 0.0 1009281
03:00+9ene41090100 2.5 1008481
06:00+9ene61294100 6.6 1004588
09:00+10e51097100 9.3 1001586
12:00+13sw61084100 2.2 9991034
15:00+13ssw91174100 2.8 9991232
18:00+11sw4782100 0.1 999658
21:00+9nw81286100 0.4 1003946
21 april, wed
wed2100:00+9w71289100 0.1 1007671
03:00+9w61183100 0.1 1011496
06:00+7wsw4992100 0.0 1013265
09:00+10w5770100 0.0 1016630
12:00+13w5753100 0.0 10171326
15:00+15w564878 0.1 10171862
18:00+14wsw466159 0.9 10181021
21:00+10sw367798 1.0 1020108
22 april, thu
thu2200:00+8sw358491 0.0 102084
03:00+7ssw3388100 0.0 102056
06:00+8ssw2491100 0.0 102178
09:00+12ssw3473100 0.0 1021483
12:00+16ssw455597 1.1 10211796
15:00+16ssw564994 1.7 10201994
18:00+15ssw566110 0.6 1020838
21:00+10ssw35829 0.8 102177